Location: Courcelles
(49.2596°N, 1.7419°E)
Time: 13:46:44
(UTC+00:00)

ATLAS 2AS CENTAUR R/B - Visible Passes

Search period start: 14 February 2026 00:00
Search period end: 24 February 2026 00:00
Orbit: 1050 x 1161 km, 63.7° (Epoch: 13 February)

Date Brightness Start Highest point End Pass type
(mag) Time Alt. Az. Time Alt. Az. Time Alt. Az.
14 Feb 4.2 19:02:33 10° NW 19:07:58 24° N 19:11:46 15° NE visible
14 Feb 4.0 20:54:43 10° NW 20:59:11 30° N 20:59:11 30° N visible
14 Feb 5.1 22:45:42 10° NW 22:46:36 14° NW 22:46:36 14° NW visible
15 Feb 4.2 18:16:44 10° WNW 18:22:16 25° N 18:27:44 10° NE visible
15 Feb 3.8 20:09:30 10° NW 20:15:20 29° NNE 20:15:37 29° NNE visible
15 Feb 4.6 22:00:38 10° NW 22:03:02 23° NW 22:03:02 23° NW visible
16 Feb 4.0 19:24:08 10° NW 19:29:43 26° NNE 19:32:03 21° NE visible
16 Feb 3.9 21:15:34 10° NW 21:19:28 33° NNW 21:19:28 33° NNW visible
16 Feb 5.3 23:06:39 10° NW 23:06:53 11° NW 23:06:53 11° NW visible
17 Feb 4.1 18:38:36 10° NW 18:44:01 24° N 18:48:30 13° NE visible
17 Feb 3.5 20:30:28 10° NW 20:35:55 37° NNE 20:35:55 37° NNE visible
17 Feb 4.7 22:21:27 10° NW 22:23:20 20° NW 22:23:20 20° NW visible
18 Feb 4.2 17:52:53 10° WNW 17:58:19 24° N 18:03:43 10° NE visible
18 Feb 3.6 19:45:18 10° NW 19:51:20 32° NNE 19:52:23 30° NE visible
18 Feb 4.0 21:36:20 10° NW 21:39:48 33° NW 21:39:48 33° NW visible
19 Feb 3.9 19:00:02 10° NW 19:05:44 27° NNE 19:08:52 20° NE visible
19 Feb 3.3 20:51:16 10° NW 20:56:18 47° N 20:56:18 47° N visible
19 Feb 5.0 22:42:29 10° NW 22:43:43 15° WNW 22:43:43 15° WNW visible
20 Feb 4.0 18:14:36 10° NW 18:20:05 25° N 18:25:23 10° ENE visible
20 Feb 3.1 20:06:12 10° NW 20:12:42 45° NE 20:12:48 45° NE visible
20 Feb 4.3 21:57:13 10° NW 22:00:14 28° NW 22:00:14 28° NW visible
21 Feb 3.5 19:21:05 10° NW 19:27:16 35° NNE 19:29:21 29° ENE visible
21 Feb 3.4 21:12:03 10° NW 21:16:46 48° NW 21:16:46 48° NW visible
21 Feb 5.3 23:04:12 10° WNW 23:04:12 10° WNW 23:04:12 10° WNW visible
22 Feb 3.7 18:35:53 10° NW 18:41:44 29° NNE 18:45:55 17° ENE visible
22 Feb 2.7 20:26:59 10° NW 20:33:20 69° NNE 20:33:20 69° NNE visible
22 Feb 4.7 22:18:25 10° NW 22:20:47 20° WNW 22:20:47 20° WNW visible
23 Feb 3.9 17:50:32 10° NW 17:56:08 26° NNE 18:01:40 10° ENE visible
23 Feb 2.9 19:41:55 10° NW 19:48:33 52° NE 19:49:57 45° ENE visible
23 Feb 3.8 21:33:01 10° NW 21:37:24 36° WNW 21:37:24 36° WNW visible
